This demonstration page uses our WeatherBlox Daily Observations layout. Learn more.

Left ArrowRight Arrow

38.3365, -75.08491

Hourly Observations for May 23, 2022

Temp ( °F °C ) Dew Point ( °F °C ) Humidity (%) Winds ( mph kmh ) Pressure ( in mb ) Visibility ( mi km ) Precip ( " mm )
12:53 am 00:53 Clear 71 21.7 67 19.4 87 87 NNW 7 11 30.04 1017 10 16 0.00 0.00
1:53 am 01:53 Clear 71 21.7 68 20 90 90 NNW 9 15 30.05 1018 10 16 0.00 0.00
2:53 am 02:53 Partly Cloudy 70 21.1 68 20 93 93 NW 6 9 30.06 1018 10 16 0.00 0.00
3:28 am 03:28 Mostly Cloudy 70 21.1 68 20 93 93 WNW 3 6 30.07 1018 10 16 0.00 0.00
3:45 am 03:45 Mostly Cloudy 70 21.1 68 20 93 93 WNW 3 6 30.07 1018 10 16 0.00 0.00
3:53 am 03:53 Mostly Cloudy 70 21.1 68 20 93 93 NNW 5 7 30.06 1018 10 16 0.00 0.00
4:15 am 04:15 Mostly Clear 70 21.1 68 20 93 93 NW 7 11 30.07 1018 10 16 0.00 0.00
4:53 am 04:53 Clear 70 21.1 68 20 93 93 NW 8 13 30.08 1019 10 16 0.00 0.00
5:53 am 05:53 Mostly Cloudy 70 21.1 68 20 93 93 N 9 15 30.09 1019 10 16 0.00 0.00
6:53 am 06:53 Cloudy 70 21.1 64 17.8 82 82 N 12 19 30.13 1020 10 16 0.00 0.00
7:29 am 07:29 Partly Cloudy 70 21.1 61 16.1 73 73 NNE 13 20 30.15 1021 10 16 0.00 0.00
7:53 am 07:53 Mostly Sunny 70 21.1 60 15.6 71 71 NNE 14 22 30.15 1021 10 16 0.00 0.00
8:53 am 08:53 Cloudy 70 21.1 59 15 68 68 N 12 19 30.17 1022 10 16 0.00 0.00
9:53 am 09:53 Cloudy 69 20.6 56 13.3 63 63 N 10 17 30.18 1022 10 16 0.00 0.00
10:53 am 10:53 Cloudy 69 20.6 55 12.8 61 61 N 13 20 30.19 1022 10 16 0.00 0.00
11:53 am 11:53 Cloudy 69 20.6 55 12.8 61 61 NNE 12 19 30.20 1023 10 16 0.00 0.00
12:53 pm 12:53 Mostly Cloudy 69 20.6 54 12.2 59 59 NE 13 20 30.20 1023 10 16 0.00 0.00
1:53 pm 13:53 Cloudy 69 20.6 54 12.2 59 59 E 13 20 30.20 1023 10 16 0.00 0.00
2:53 pm 14:53 Sunny 69 20.6 55 12.8 61 61 E 9 15 30.19 1022 10 16 0.00 0.00
3:53 pm 15:53 Mostly Sunny 66 18.9 54 12.2 65 65 E 9 15 30.19 1022 10 16 0.00 0.00
4:53 pm 16:53 Mostly Sunny 66 18.9 54 12.2 65 65 E 8 13 30.17 1022 10 16 0.00 0.00
5:53 pm 17:53 Sunny 65 18.3 55 12.8 70 70 E 5 7 30.17 1022 10 16 0.00 0.00
6:53 pm 18:53 Sunny 64 17.8 54 12.2 70 70 E 6 9 30.17 1022 10 16 0.00 0.00
7:53 pm 19:53 Sunny 62 16.7 54 12.2 75 75 E 6 9 30.18 1022 10 16 0.00 0.00
8:53 pm 20:53 Clear 62 16.7 53 11.7 73 73 Calm 30.20 1023 10 16 0.00 0.00
9:53 pm 21:53 Mostly Clear 60 15.6 55 12.8 84 84 Calm 30.22 1023 10 16 0.00 0.00
10:53 pm 22:53 Mostly Clear 61 16.1 55 12.8 81 81 Calm 30.21 1023 10 16 0.00 0.00
11:53 pm 23:53 Partly Cloudy 62 16.7 54 12.2 75 75 E 6 9 30.19 1023 10 16 0.00 0.00

Powered by AerisWeather